TimeCDT,TemperatureF,Dew PointF,Humidity,Sea Level PressureIn,VisibilityMPH,Wind Direction,Wind SpeedMPH,Gust SpeedMPH,PrecipitationIn,Events,Conditions,WindDirDegrees,DateUTC
12:15 AM,51.8,35.6,54,30.10,10.0,ESE,5.8,-,N/A,,Clear,110,2013-03-15 05:15:00
12:35 AM,51.8,35.6,54,30.09,10.0,ESE,6.9,-,N/A,,Clear,110,2013-03-15 05:35:00
12:55 AM,53.6,33.8,47,30.08,10.0,ESE,8.1,-,N/A,,Clear,120,2013-03-15 05:55:00
1:15 AM,51.8,35.6,54,30.08,10.0,SE,8.1,-,N/A,,Clear,140,2013-03-15 06:15:00
1:35 AM,50.0,35.6,58,30.07,10.0,SE,6.9,-,N/A,,Clear,140,2013-03-15 06:35:00
2:15 AM,50.0,35.6,58,30.06,10.0,SE,6.9,-,N/A,,Clear,140,2013-03-15 07:15:00
2:35 AM,46.4,35.6,66,30.05,10.0,SE,8.1,-,N/A,,Clear,140,2013-03-15 07:35:00
2:55 AM,46.4,35.6,66,30.05,10.0,SE,8.1,-,N/A,,Clear,140,2013-03-15 07:55:00
3:15 AM,46.4,35.6,66,30.03,10.0,SSE,8.1,-,N/A,,Clear,150,2013-03-15 08:15:00
3:35 AM,46.4,35.6,66,30.02,10.0,SE,9.2,-,N/A,,Clear,140,2013-03-15 08:35:00
3:55 AM,48.2,35.6,62,30.02,10.0,SSE,9.2,-,N/A,,Clear,150,2013-03-15 08:55:00
4:15 AM,46.4,35.6,66,30.01,10.0,SSE,8.1,-,N/A,,Clear,160,2013-03-15 09:15:00
4:35 AM,46.4,35.6,66,29.99,10.0,SSE,8.1,-,N/A,,Clear,160,2013-03-15 09:35:00
4:55 AM,46.4,35.6,66,29.98,10.0,South,9.2,-,N/A,,Clear,170,2013-03-15 09:55:00
5:15 AM,46.4,35.6,66,29.98,10.0,South,6.9,-,N/A,,Clear,180,2013-03-15 10:15:00
5:35 AM,44.6,35.6,71,29.97,10.0,South,9.2,-,N/A,,Clear,190,2013-03-15 10:35:00
5:55 AM,46.4,37.4,71,29.97,10.0,SSW,9.2,-,N/A,,Clear,200,2013-03-15 10:55:00
6:15 AM,46.4,37.4,71,29.97,10.0,SSW,10.4,-,N/A,,Clear,200,2013-03-15 11:15:00
6:35 AM,46.4,37.4,71,29.96,10.0,SSW,10.4,-,N/A,,Clear,200,2013-03-15 11:35:00
6:55 AM,46.4,37.4,71,29.96,10.0,SSW,10.4,-,N/A,,Clear,210,2013-03-15 11:55:00
7:15 AM,46.4,37.4,71,29.97,10.0,SSW,9.2,-,N/A,,Clear,210,2013-03-15 12:15:00
7:35 AM,46.4,37.4,71,29.96,10.0,SW,10.4,-,N/A,,Clear,220,2013-03-15 12:35:00
7:55 AM,46.4,37.4,71,29.96,10.0,SW,8.1,-,N/A,,Clear,230,2013-03-15 12:55:00
8:15 AM,46.4,37.4,71,29.96,10.0,SW,9.2,-,N/A,,Clear,220,2013-03-15 13:15:00
8:35 AM,48.2,37.4,66,29.95,10.0,SW,9.2,-,N/A,,Clear,220,2013-03-15 13:35:00
8:55 AM,50.0,39.2,66,29.94,10.0,SW,11.5,-,N/A,,Clear,220,2013-03-15 13:55:00
9:15 AM,51.8,41.0,67,29.94,10.0,SW,10.4,-,N/A,,Clear,220,2013-03-15 14:15:00
9:35 AM,55.4,42.8,63,29.94,10.0,SW,9.2,-,N/A,,Clear,230,2013-03-15 14:35:00
9:55 AM,59.0,42.8,55,29.93,10.0,WSW,12.7,-,N/A,,Clear,240,2013-03-15 14:55:00
10:15 AM,60.8,42.8,52,29.93,10.0,SW,10.4,-,N/A,,Clear,230,2013-03-15 15:15:00
10:35 AM,62.6,42.8,48,29.92,10.0,WSW,11.5,-,N/A,,Clear,240,2013-03-15 15:35:00
10:55 AM,64.4,42.8,45,29.92,10.0,WSW,12.7,-,N/A,,Clear,240,2013-03-15 15:55:00
11:15 AM,66.2,42.8,43,29.91,10.0,WSW,11.5,-,N/A,,Clear,240,2013-03-15 16:15:00
11:35 AM,68.0,42.8,40,29.90,10.0,SW,11.5,-,N/A,,Clear,230,2013-03-15 16:35:00
11:55 AM,69.8,44.6,40,29.90,10.0,SW,12.7,-,N/A,,Clear,230,2013-03-15 16:55:00
12:15 PM,71.6,44.6,38,29.89,10.0,WSW,10.4,-,N/A,,Clear,240,2013-03-15 17:15:00
12:35 PM,73.4,44.6,36,29.88,10.0,SW,11.5,-,N/A,,Clear,220,2013-03-15 17:35:00
12:55 PM,73.4,44.6,36,29.87,10.0,WSW,11.5,-,N/A,,Clear,240,2013-03-15 17:55:00
1:15 PM,75.2,44.6,34,29.86,10.0,SW,12.7,-,N/A,,Clear,230,2013-03-15 18:15:00
1:35 PM,77.0,44.6,32,29.85,10.0,SW,12.7,-,N/A,,Clear,230,2013-03-15 18:35:00
1:55 PM,78.8,44.6,30,29.84,10.0,SW,15.0,-,N/A,,Clear,230,2013-03-15 18:55:00
2:15 PM,78.8,44.6,30,29.83,10.0,SW,15.0,-,N/A,,Clear,230,2013-03-15 19:15:00
2:35 PM,80.6,44.6,28,29.81,10.0,SW,16.1,-,N/A,,Clear,230,2013-03-15 19:35:00
2:55 PM,80.6,44.6,28,29.80,10.0,SSW,16.1,-,N/A,,Clear,210,2013-03-15 19:55:00
3:15 PM,82.4,44.6,26,29.78,10.0,SW,15.0,18.4,N/A,,Clear,220,2013-03-15 20:15:00
3:35 PM,80.6,42.8,26,29.77,10.0,SSW,17.3,-,N/A,,Clear,200,2013-03-15 20:35:00
3:55 PM,82.4,44.6,26,29.76,10.0,SSW,16.1,20.7,N/A,,Clear,200,2013-03-15 20:55:00
4:15 PM,78.8,46.4,32,29.76,10.0,South,17.3,-,N/A,,Clear,190,2013-03-15 21:15:00
4:35 PM,78.8,46.4,32,29.75,10.0,South,19.6,24.2,N/A,,Clear,190,2013-03-15 21:35:00
4:55 PM,78.8,46.4,32,29.75,10.0,SSW,18.4,-,N/A,,Clear,200,2013-03-15 21:55:00
5:15 PM,78.8,44.6,30,29.74,10.0,SSW,20.7,25.3,N/A,,Clear,210,2013-03-15 22:15:00
5:35 PM,78.8,42.8,28,29.74,10.0,SSW,17.3,26.5,N/A,,Clear,210,2013-03-15 22:35:00
5:55 PM,77.0,42.8,29,29.74,10.0,SSW,17.3,25.3,N/A,,Clear,210,2013-03-15 22:55:00
6:15 PM,73.4,44.6,36,29.74,10.0,SSW,13.8,-,N/A,,Clear,200,2013-03-15 23:15:00
6:35 PM,73.4,44.6,36,29.73,10.0,SSW,15.0,-,N/A,,Clear,200,2013-03-15 23:35:00
6:55 PM,73.4,44.6,36,29.73,10.0,SSW,17.3,-,N/A,,Clear,200,2013-03-15 23:55:00
7:15 PM,71.6,42.8,35,29.72,10.0,SSW,12.7,-,N/A,,Clear,200,2013-03-16 00:15:00
7:35 PM,69.8,42.8,38,29.72,10.0,SSW,10.4,-,N/A,,Clear,200,2013-03-16 00:35:00
7:55 PM,66.2,42.8,43,29.72,10.0,SSW,9.2,-,N/A,,Clear,200,2013-03-16 00:55:00
8:15 PM,66.2,44.6,46,29.72,10.0,SSW,11.5,-,N/A,,Clear,200,2013-03-16 01:15:00
8:35 PM,66.2,46.4,49,29.72,10.0,SSW,13.8,-,N/A,,Clear,200,2013-03-16 01:35:00
8:55 PM,66.2,46.4,49,29.72,10.0,SSW,12.7,-,N/A,,Clear,200,2013-03-16 01:55:00
9:15 PM,66.2,46.4,49,29.72,10.0,SSW,13.8,-,N/A,,Clear,200,2013-03-16 02:15:00
9:35 PM,64.4,46.4,52,29.72,10.0,SSW,12.7,-,N/A,,Clear,210,2013-03-16 02:35:00
9:55 PM,64.4,46.4,52,29.73,10.0,SSW,12.7,-,N/A,,Clear,210,2013-03-16 02:55:00
10:15 PM,62.6,46.4,55,29.73,10.0,SW,11.5,-,N/A,,Clear,220,2013-03-16 03:15:00
10:35 PM,62.6,46.4,55,29.73,10.0,SSW,12.7,-,N/A,,Clear,210,2013-03-16 03:35:00
10:55 PM,60.8,46.4,59,29.74,10.0,SW,11.5,-,N/A,,Clear,220,2013-03-16 03:55:00
11:15 PM,60.8,44.6,55,29.74,10.0,SW,10.4,-,N/A,,Clear,220,2013-03-16 04:15:00
11:35 PM,59.0,44.6,59,29.74,10.0,SW,6.9,-,N/A,,Clear,230,2013-03-16 04:35:00
11:55 PM,57.2,44.6,63,29.74,10.0,WSW,6.9,-,N/A,,Clear,240,2013-03-16 04:55:00